Voltar ao catálogo

NOAA 17 DEB

AtivoPO
NORAD 48742·DEBRIS·🇺🇸 United States

Lançado Jun 24, 2002 de Vandenberg Space Force Base

Loading…

Próximas Passagens (próximas 24 horas)

TLE

AtualizadoSource: Space-Track

Época: Sep 14, 2026, 05:39 UTC

1 48742U 02032CB  26257.23569497  .00005178  00000-0  11409-2 0  9997
2 48742  98.7795 257.5259 0016001  37.7421 322.4896 14.57791754287000

Acompanhe NOAA 17 DEB em tempo real com AllMySat

Download on the App Store